New Delhi, India

5:18 PM IST on May 25, 2017 (GMT +0530)
Indira Gandhi International

Weather History for VIDP - November, 2012

Change the Weather History Date:

Sunday, November 4, 2012

  Actual Average Record
Temperature  
Mean Temperature 68 °F -  
Max Temperature 77 °F 79 °F 93 °F (1999)
Min Temperature 60 °F 55 °F 55 °F (2013)
Cooling Degree Days 4    
Growing Degree Days 18 (Base 50)    
Moisture  
Dew Point 58 °F    
Average Humidity 75    
Maximum Humidity 88    
Minimum Humidity 50    
Precipitation  
Precipitation 0.00 in - - ()
Sea Level Pressure  
Sea Level Pressure 29.90 in    
Wind  
Wind Speed 1 mph ()    
Max Wind Speed 6 mph    
Max Gust Speed -    
Visibility 0.3 miles    
Events Fog    
Averages and records for this station are not official NWS values.
T = Trace of Precipitation, MM = Missing Value Source: Averaged Metar Reports

Daily Weather History Graph

Daily Weather History Graph

Search for Another Location

Airport or City:

Trip Planner

Search our weather history database for the weather conditions in past years. The results will help you decide how hot, cold, wet, or windy it might be!

Date:

Astronomy

Nov. 04, 2012 Rise Set
Actual Time 6:35 AM IST 5:34 PM IST
Civil Twilight 6:11 AM IST 5:58 PM IST
Nautical Twilight 5:43 AM IST 6:26 PM IST
Astronomical Twilight 5:15 AM IST 6:54 PM IST
Moon 9:50 PM IST (11/4) 10:54 AM IST (11/4)
Length of Visible Light 11h 47m
Length of Day
10h 58m
Waning Gibbous, 76% of the Moon is Illuminated
Nov 4
Waning Gibbous
Nov 7
Last Quarter
Nov 14
New
Nov 20
First Quarter
Nov 28
Full

Hourly Weather History & Observations

Time (IST) Temp. Dew Point Humidity Pressure Visibility Wind Dir Wind Speed Gust Speed Precip Events Conditions
12:00 AM 64.4 °F 59.0 °F 83% 29.89 in 0.4 mi Calm Calm - N/A   Mist
12:30 AM 64.4 °F 59.0 °F 83% 29.89 in 0.4 mi Calm Calm - N/A Fog Shallow Fog
1:00 AM 64.4 °F 59.0 °F 83% 29.89 in 0.4 mi Calm Calm - N/A Fog Shallow Fog
1:30 AM 62.6 °F 59.0 °F 88% 29.89 in 0.4 mi Calm Calm - N/A Fog Shallow Fog
2:00 AM 62.6 °F 59.0 °F 88% 29.89 in 0.3 mi Calm Calm - N/A Fog Fog
2:30 AM 62.6 °F 59.0 °F 88% 29.89 in 0.3 mi Calm Calm - N/A Fog Fog
3:00 AM 62.6 °F 59.0 °F 88% 29.89 in 0.3 mi Calm Calm - N/A Fog Fog
3:30 AM 62.6 °F 57.2 °F 82% 29.89 in 0.3 mi Calm Calm - N/A Fog Fog
4:00 AM 62.6 °F 55.4 °F 77% 29.89 in 0.3 mi Calm Calm - N/A Fog Fog
4:30 AM 62.6 °F 55.4 °F 77% 29.89 in 0.3 mi Calm Calm - N/A Fog Fog
5:00 AM 62.6 °F 55.4 °F 77% 29.89 in 0.3 mi Calm Calm - N/A Fog Fog
5:30 AM 62.6 °F 55.4 °F 77% 29.92 in 0.2 mi Calm Calm - N/A Fog Fog
6:00 AM 62.6 °F 55.4 °F 77% 29.89 in 0.2 mi Calm Calm - N/A Fog Fog
6:30 AM 62.6 °F 55.4 °F 77% 29.92 in 0.2 mi Calm Calm - N/A Fog Fog
7:00 AM 60.8 °F 55.4 °F 82% 29.92 in 0.2 mi Calm Calm - N/A Fog Fog
7:30 AM 60.8 °F 55.4 °F 82% 29.92 in 0.2 mi WSW 3.5 mph - N/A Fog Fog
8:00 AM 60.8 °F 55.4 °F 82% 29.95 in 0.2 mi West 3.5 mph - N/A Fog Fog
8:30 AM 62.6 °F 57.2 °F 82% 29.95 in 0.2 mi West 2.3 mph - N/A Fog Fog
9:00 AM 64.4 °F 59.0 °F 83% 29.95 in 0.2 mi West 3.5 mph - N/A Fog Fog
9:30 AM 66.2 °F 57.2 °F 73% 29.95 in 0.3 mi West 4.6 mph - N/A Fog Fog
10:30 AM 69.8 °F 57.2 °F 64% 29.95 in 0.4 mi WSW 5.8 mph - N/A   Smoke
11:00 AM 71.6 °F 57.2 °F 60% 29.95 in 0.4 mi WSW 4.6 mph - N/A   Smoke
11:30 AM 71.6 °F 57.2 °F 60% 29.95 in 0.4 mi WSW 5.8 mph - N/A   Smoke
12:00 PM 71.6 °F 57.2 °F 60% 29.92 in 0.4 mi WSW 3.5 mph - N/A   Smoke
12:30 PM 75.2 °F 57.2 °F 53% 29.92 in 0.4 mi SW 3.5 mph - N/A   Smoke
2:00 PM 77.0 °F 57.2 °F 50% 29.86 in 0.5 mi West 4.6 mph - N/A   Smoke
2:30 PM 77.0 °F 59.0 °F 54% 29.86 in 0.5 mi West 3.5 mph - N/A   Smoke
3:00 PM 77.0 °F 57.2 °F 50% 29.86 in 0.5 mi WNW 4.6 mph - N/A   Smoke
3:30 PM 77.0 °F 57.2 °F 50% 29.86 in 0.5 mi WNW 4.6 mph - N/A   Smoke
4:00 PM 77.0 °F 59.0 °F 54% 29.86 in 0.4 mi West 3.5 mph - N/A   Smoke
4:30 PM 75.2 °F 59.0 °F 57% 29.86 in 0.4 mi West 3.5 mph - N/A   Smoke
5:00 PM 75.2 °F 59.0 °F 57% 29.86 in 0.4 mi West 3.5 mph - N/A   Smoke
5:30 PM 71.6 °F 59.0 °F 64% 29.86 in 0.4 mi Calm Calm - N/A   Smoke
6:00 PM 68.0 °F 60.8 °F 78% 29.86 in 0.3 mi Calm Calm - N/A Fog Shallow Fog
6:30 PM 68.0 °F 60.8 °F 78% 29.86 in 0.3 mi Calm Calm - N/A Fog Shallow Fog
7:00 PM 66.2 °F 60.8 °F 83% 29.89 in 0.2 mi Calm Calm - N/A Fog Fog
7:30 PM 66.2 °F 60.8 °F 83% 29.89 in 0.2 mi Calm Calm - N/A Fog Fog
8:00 PM 66.2 °F 60.8 °F 83% 29.89 in 0.2 mi Calm Calm - N/A Fog Fog
8:30 PM 64.4 °F 60.8 °F 88% 29.89 in 0.2 mi Calm Calm - N/A Fog Fog
9:00 PM 62.6 °F 59.0 °F 88% 29.89 in 0.2 mi Calm Calm - N/A Fog Fog
9:30 PM 62.6 °F 59.0 °F 88% 29.89 in 0.2 mi Calm Calm - N/A Fog Fog
10:00 PM 62.6 °F 59.0 °F 88% 29.89 in 0.2 mi Calm Calm - N/A Fog Fog
10:30 PM 62.6 °F 59.0 °F 88% 29.89 in 0.2 mi Calm Calm - N/A Fog Fog
11:00 PM 62.6 °F 59.0 °F 88% 29.89 in 0.2 mi Calm Calm - N/A Fog Fog
11:30 PM 62.6 °F 59.0 °F 88% 29.89 in 0.2 mi Calm Calm - N/A Fog Fog